Regional Weather Roundup
Issued by NWS

Home | Current Version | Previous Version | Text Only | Print | Product List | Glossary Off
Versions: 1 2 3 4 5 6 7 8 9 10 11 12 13 14 15 16 17 18 19 20 21 22 23 24 25 26 27 28 29 30 31 32 33 34 35 36 37 38 39 40 41 42 43 44 45 46 47 48 49 50

000
ASUS45 KBOU 240507
RWRCO

WEATHER ROUNDUP FOR COLORADO
NATIONAL WEATHER SERVICE DENVER/BOULDER CO
1000 PM MST MON JAN 23 2017

NOTE: "FAIR" INDICATES FEW OR NO CLOUDS BELOW 12000 FEET WITH NO
SIGNIFICANT WEATHER AND/OR OBSTRUCTIONS TO VISIBILITY.

COZ001>005-013-030-031-240600-
...NORTHWEST COLORADO...

CITY           SKY/WX    TMP DP  RH WIND       PRES   REMARKS
CRAIG          CLOUDY    31  20  63 S14       29.53F WCI  21
HAYDEN         NOT AVBL
MEEKER         FAIR      30  22  72 VRB6      29.54F WCI  24
MOUNT WERNER   NOT AVBL
STEAMBOAT SPGS CLOUDY    26  17  66 NW5       29.54F WCI  21
WALDEN           N/A     21  16  79 S12       29.54F WCI   9
$$

COZ006>008-011-240600-
...WEST CENTRAL VALLEYS...

CITY           SKY/WX    TMP DP  RH WIND       PRES   REMARKS
GRAND JUNCTION FAIR      30  30 100 E5        29.56F WCI  25
MONTROSE       CLOUDY    33  26  75 SE6       29.62S WCI  28
EAGLE          MOCLDY    27  23  86 NE7       29.59F WCI  19
RIFLE          FAIR      29  27  92 SW3       29.57S
DELTA          MOCLDY    36  29  78 N8        29.61S
NUCLA          CLOUDY    32  23  69 NE3       29.64R
$$

COZ017>023-064>068-240600-
...SOUTHWEST COLORADO...

CITY           SKY/WX    TMP DP  RH WIND       PRES   REMARKS
DURANGO        CLOUDY    27  23  85 W8        29.60F WCI  19
CORTEZ         FLURRIES  29  27  92 E8        29.65F WCI  21
PAGOSA SPRINGS LGT SNOW  28  28 100 SW3       29.59F
TELLURIDE      NOT AVBL
WOLF CREEK PAS CLOUDY    12  12 100 SW30G38   29.57F WCI  -9
$$

COZ009-010-012-014-032>034-037-058>063-240600-
...CENTRAL COLORADO...

CITY           SKY/WX    TMP DP  RH WIND       PRES   REMARKS
ASPEN          CLOUDY    23  21  92 N3        29.55F
BUENA VISTA    CLOUDY    26  17  68 W3        29.56R
COPPER MTN     CLOUDY    14   9  79 MISG      29.53F
BERTHOUD PASS  CLOUDY     9  -4  56 MISG      29.53F
COTTONWOOD PAS LGT SNOW  23  14  68 SW15G23   29.55S WCI  10
GUNNISON       FAIR      23  18  81 S3        29.61R
KREMMLING      NOT AVBL
LEADVILLE      LGT SNOW  18  13  80 NE7       29.53F WCI   9
MONARCH PASS   CLOUDY    12   9  85 SW9G21    29.65S WCI   0
SALIDA         CLOUDY    32  21  64 SW8       29.65R WCI  24
SUNLIGHT         N/A     12   9  85 SW15G21   29.56F WCI  -4
WILKERSON PASS CLOUDY   N/A N/A N/A SW13G23   29.54F
$$

COZ069>075-240600-
...SAN LUIS VALLEY/SANGRE DE CRISTO MOUNTAINS...

CITY           SKY/WX    TMP DP  RH WIND       PRES   REMARKS
ALAMOSA        CLOUDY    30  27  88 N3        29.56R
LA VETA PASS   CLOUDY    27  23  86 NE25G43   29.52F FOG     WCI  11
SAGUACHE       LGT SNOW  27  23  86 NW13      29.60R WCI  16
$$

COZ035-036-038>040-240600-
...NORTHERN COLORADO FRONT RANGE...

CITY           SKY/WX    TMP DP  RH WIND       PRES   REMARKS
DENVER INTL AP MOCLDY    32  26  78 N14       29.52R WCI  22
DMNS CITY PARK   N/A     35  25  65 N8G14     29.55R WCI  29
AURORA         MOCLDY    33  28  79 NW7       29.53R WCI  27
FRONT RANGE AP NOT AVBL
ERIE MUNI ARPT FAIR      35  31  85 N13G20    29.55R WCI  26
BOULDER MUN AP FAIR      34  32  93 N9        29.55R WCI  26
CENTENNIAL     MOCLDY    38  26  62 W8        29.52R
BROOMFIELD     MOCLDY    36  27  69 NW23      29.53R
FORT COLLINS   CLOUDY    32  32 100 N7        29.57S WCI  26
LONGMONT       FAIR      36  33  90 N12       29.58R
$$

COZ041-046-047-076>085-087-088-240600-
...PIKES PEAK/PALMER DIVIDE AND SOUTHERN FOOTHILLS...

CITY           SKY/WX    TMP DP  RH WIND       PRES   REMARKS
COLO. SPRINGS  MOCLDY    39  24  55 NW12      29.51F
A. F. ACADEMY  MOCLDY    37  23  58 VRB5      29.50F
SCHRIEVER AFB  MOCLDY    34  23  64 W6        29.51S WCI  29
ELLICOTT       FAIR     N/A N/A N/A CALM      29.49S
FALCON         CLOUDY    37  21  54 W10       29.51F
FORT CARSON    FAIR      38  22  51 N5        29.48F
LIMON          FAIR      29  23  78 N7        29.47F WCI  22
MONUMENT HILL  CLOUDY    34  23  64 NW3       29.51S
TRINIDAD       FAIR      34  28  79 W10       29.52F WCI  26
$$

COZ042>045-048>051-090-091-240600-
...NORTHEAST COLORADO...

CITY           SKY/WX    TMP DP  RH WIND       PRES   REMARKS
GREELEY ARPT   MIX PCPN  35  31  85 NW18      29.59R WCI  24
AKRON          FAIR      31  25  78 E10       29.52S WCI  22
BURLINGTON     FAIR      28  25  88 W6        29.49F WCI  22
WRAY           NOT AVBL
STERLING       FAIR      34  30  86 NE7       29.51F WCI  28
HOLYOKE        FAIR      36  30  80 NE10      29.54F
FORT MORGAN    FAIR      32  25  73 NE7       29.53R WCI  26
$$

COZ086-089-092>099-240600-
...SOUTHEAST COLORADO...

CITY           SKY/WX    TMP DP  RH WIND       PRES   REMARKS
PUEBLO         FAIR      38  27  64 SW5       29.48F
LA JUNTA       FAIR      33  27  78 W6        29.48F WCI  28
LAMAR          FAIR      35  27  72 W7        29.48F WCI  29
SPRINGFIELD      N/A     42  29  59 SW10      29.52F
$$



USA.gov is the U.S. government's official web portal to all federal, state and local government web resources and services.